Regional Weather Roundup
Issued by NWS

Home | Current Version | Previous Version | Graphics & Text | Print | Product List | Glossary Off
Versions: 1 2 3 4 5 6 7 8 9 10 11 12 13 14 15 16 17 18 19 20 21 22 23 24 25 26 27 28 29 30 31 32 33 34 35 36 37 38 39 40 41 42 43 44 45 46 47 48 49 50

000
ASUS43 KTOP 251008
RWRKS

WEATHER ROUNDUP FOR KANSAS
NATIONAL WEATHER SERVICE GOODLAND KS
500 AM CDT FRI JUL 25 2014

NOTE:  "FAIR" INDICATES FEW OR NO CLOUDS BELOW 12,000 FEET WITH NO
SIGNIFICANT WEATHER AND/OR OBSTRUCTIONS TO VISIBILITY.

KSZ001>006-013>018-027>032-041>047-251100-
NORTHWEST KANSAS

CITY           SKY/WX    TMP DP  RH WIND       PRES   REMARKS
GOODLAND       CLOUDY    73  53  49 W8        29.91R
HAYS           PTCLDY    70  63  78 S18G24    29.85F
HILL CITY      CLOUDY    82  63  52 SW14      29.83F
RUSSELL        PTCLDY    78  67  68 S18       29.83F
$$

KSZ061>065-074>080-084>089-251100-
SOUTHWEST KANSAS

CITY           SKY/WX    TMP DP  RH WIND       PRES   REMARKS
DODGE CITY     CLEAR     75  63  66 S14       29.93F
ELKHART          N/A     76  56  50 S15         N/A
GARDEN CITY    PTCLDY    76  62  62 S15       29.92F
GREAT BEND     PTCLDY    79  66  65 S18       29.86F
LIBERAL        CLEAR     75  61  60 S14       29.99S
PRATT          CLEAR     73  64  73 S15       29.93F
$$

KSZ066>073-081>083-090>101-251100-
SOUTHEAST KANSAS

CITY           SKY/WX    TMP DP  RH WIND       PRES   REMARKS
CHANUTE        PTCLDY    72  70  93 S12       29.93F
COFFEYVILLE    PTCLDY    73  70  90 S7        29.94F
HUTCHINSON     CLEAR     76  68  76 S13       29.90F
MEDICINE LODGE   N/A     75  69  81 S5        29.92F
NEWTON         CLEAR     75  64  69 S17G24    29.94F
PARSONS        PTCLDY    72  69  90 S7        29.96F
WICHITA INTL   PTCLDY    75  69  81 S15G24    29.91F
WICHITA JABRA  CLEAR     76  70  82 S18G24    29.91F
WICHITA MCCONL CLEAR     75  74  95 S16       29.92F
WINFIELD       MOCLDY    75  70  84 S13       29.94F
$$

KSZ007>012-019>026-033>040-048>060-102>105-251100-
NORTHEAST KANSAS

CITY           SKY/WX    TMP DP  RH WIND       PRES   REMARKS
CONCORDIA      PTCLDY    78  71  79 S21G26    29.81F
EMPORIA        PTCLDY    75  70  84 S18G26    29.87F
LAWRENCE       PTCLDY    71  65  81 E7        29.87F
MANHATTAN      MOCLDY    78  70  76 SW14      29.84F
MARYSVILLE     CLOUDY    77  70  78 SW8G17    29.82S
OLATHE IND     PTCLDY    69  63  81 S9        29.89F
OLATHE EXE     PTCLDY    69  61  75 S8        29.89F
SALINA         CLEAR     79  69  71 S18       29.85F
TOPEKA BILLARD MOCLDY    77  70  79 CALM      29.85F
TOPEKA FORBES  PTCLDY    75  69  81 S14       29.85F
$$


USA.gov is the U.S. government's official web portal to all federal, state and local government web resources and services.